[[{"header":{"parameterUnit":"m.s-1","parameterCategory":1,"la1":30.2991,"la2":30.254,"lo1":-89.0895,"lo2":-89.0444,"dy":0.0017,"dx":0.0017,"nx":28,"ny":28,"refTime":"2023-10-09T03:00:00:Z","depth":0,"parameterNumber":2,"parameterNumberName":"U-component_of_WINDS"},"data":[0,0,0,0,0,0,0,0,0,0,0,0,0,0,0,0,0,0,0,0,0,0,0,0,0,0,0,0,0,0,0,0,0,0,0,0,0,0,0,0,0,0,0,0,0,0,0,0,0,0,0,0,0,0,0,0,0,0,2.3459,2.3461,0,2.3597,2.3599,2.36,2.3563,2.356,2.3557,2.3554,2.3699,2.3705,2.3712,0,0,0,0,0,0,0,0,0,0,0,0,0,2.3166,2.3172,2.3459,2.3461,2.3463,2.3597,2.3599,2.3601,2.3563,2.356,2.3556,2.3553,2.3697,2.3705,2.3712,0,0,0,0,0,0,0,0,0,0,0,0,0,2.3298,2.3174,2.3459,2.346,2.3461,2.3596,2.3599,2.3601,2.3564,2.356,2.3556,2.3552,2.3694,2.3704,2.3713,2.3857,0,0,2.3743,2.3747,0,0,0,0,0,0,0,0,2.329,2.3309,2.3458,2.346,2.3462,2.3558,2.3548,2.3687,2.3565,2.3525,2.3554,2.355,2.3656,2.3668,2.3704,2.3863,2.387,2.3744,2.375,2.3754,2.3756,0,0,0,0,0,0,0,2.3281,2.3302,2.3514,2.346,2.3463,2.3455,2.3469,2.3575,2.3612,2.3528,2.3526,2.3543,2.3656,2.3694,2.3707,2.3872,2.3743,2.3752,2.3758,2.3762,2.4156,2.4161,0,0,0,0,0,0,2.327,2.3295,2.3509,2.3518,2.3364,2.3463,2.3479,2.3532,2.3611,2.3619,2.3546,2.354,2.368,2.3695,2.3712,2.3884,2.3754,2.3763,2.3768,2.4152,2.4157,2.4162,0,0,0,0,0,0,2.3264,2.329,2.3504,2.3406,2.3433,2.3473,2.3532,2.3537,2.3575,2.3624,2.3631,2.3578,2.3677,2.3698,2.3821,2.3889,2.3767,2.3776,2.4146,2.4153,2.416,2.423,0,0,0,0,0,0,2.3256,2.3288,2.3342,2.3407,2.3438,2.361,2.3536,2.3542,2.3591,2.3585,2.3656,2.3664,2.3676,2.3806,2.383,2.39,2.3783,2.414,2.4149,2.4158,2.4222,2.4239,2.4253,0,0,0,0,0,2.3246,2.3357,2.3345,2.3371,2.3506,2.3614,2.3631,2.3641,2.3597,2.3652,2.3684,2.3662,2.3878,2.3819,2.3846,2.3919,2.4136,2.4147,2.4157,2.4215,2.4236,2.4253,0,0,0,0,0,0,2.3299,2.3365,2.3353,2.3488,2.3546,2.3607,2.3677,2.3663,2.3734,2.3726,2.3737,2.3753,2.3878,2.3911,2.3845,2.4062,2.4,2.4017,2.4036,2.4056,2.4071,2.406,2.3791,0,0,0,0,0,2.3327,2.3407,2.3461,2.3576,2.3605,2.3636,2.3684,2.3686,2.3746,2.3771,2.3812,2.3872,2.3953,2.4006,2.4084,2.4227,2.4242,2.4291,2.4307,2.4319,2.4333,2.4411,2.4433,2.4197,2.4197,2.4197,0,0,2.3385,2.3431,2.3481,2.3588,2.3633,2.3717,2.3657,2.3749,2.3811,2.3785,2.3902,2.3935,2.4003,2.4136,2.4197,2.4168,2.4402,2.4333,2.4342,2.4349,2.4424,2.4446,2.4466,2.4204,2.4203,2.4202,0,0,2.3532,2.3576,2.3676,2.3721,2.3789,2.3809,2.3834,2.3898,2.3918,2.4036,2.4018,2.4093,2.4233,2.4282,2.4325,2.4493,2.4475,2.4518,2.4599,2.4675,2.4694,2.471,2.4769,2.479,2.4532,2.4532,2.4532,0,2.3596,2.3721,2.3729,2.3822,2.387,2.3849,2.3951,2.3996,2.4086,2.412,2.4085,2.426,2.4305,2.4449,2.449,2.4526,2.4554,2.4509,2.469,2.4707,2.4722,2.4779,2.4801,2.4537,2.4536,2.4536,2.4535,0,2.3795,2.3882,2.3955,2.4042,2.4098,2.4195,2.4219,2.4275,2.4273,2.4297,2.4418,2.4471,2.4558,2.4593,2.4593,2.4738,2.4717,2.4687,2.4625,2.4749,2.4803,2.4824,2.4543,2.4542,2.454,2.4539,0,0,2.398,2.407,2.4096,2.4135,2.4209,2.4277,2.4374,2.4459,2.4506,2.457,2.4651,2.477,2.4742,2.4791,2.4797,2.4864,2.4992,2.4825,2.4827,2.4853,2.5155,2.5176,2.5201,2.4982,2.4986,2.4989,2.5149,0,2.4133,2.4302,2.4312,2.4465,2.4546,2.4528,2.4612,2.4667,2.4693,2.4766,2.4794,2.4878,2.4835,2.4864,2.493,2.4963,2.5053,2.4952,2.5058,2.5061,2.5039,2.5229,2.5252,2.54,2.517,2.5173,2.5176,0,2.4335,2.4403,2.4564,2.4626,2.466,2.4736,2.4814,2.4884,2.4947,2.496,2.5015,2.5012,2.5112,2.5047,2.5185,2.5116,2.516,2.5183,2.5189,2.5199,2.5125,2.5243,2.5448,2.547,2.5209,2.5206,2.5204,0,2.4452,2.4585,2.4698,2.4732,2.4808,2.4861,2.4895,2.4953,2.5004,2.5073,2.5106,2.5187,2.5231,2.5294,2.5312,2.5263,2.545,2.5387,2.5464,2.5464,2.5503,2.55,2.5717,2.5534,2.5534,2.5533,2.5533,0,2.4622,2.472,2.4751,2.4821,2.4931,2.4943,2.5052,2.5084,2.5136,2.5212,2.5202,2.5274,2.5294,2.537,2.5385,2.5497,2.5518,2.5532,2.5534,2.5532,2.553,2.556,2.555,2.5539,2.5538,2.5537,2.5536,0,2.4771,2.4795,2.4917,2.4979,2.4997,2.5075,2.5129,2.5196,2.522,2.5316,2.534,2.5378,2.5466,2.5491,2.5598,2.5608,2.574,2.5734,2.5718,2.5718,2.5793,2.5785,2.6036,2.6069,2.5865,2.5867,2.5869,0,2.4877,2.4952,2.5022,2.5071,2.5107,2.5188,2.5239,2.5254,2.5308,2.5385,2.5443,2.553,2.56,2.5743,2.5781,2.5863,2.5858,2.594,2.587,2.5865,2.5858,2.5852,2.586,2.5953,2.5955,2.5957,2.5958,0,2.5062,2.507,2.5143,2.5222,2.5283,2.5345,2.5405,2.5447,2.5471,2.5532,2.5621,2.5676,2.5784,2.5871,2.5954,2.599,2.5979,2.598,2.6002,2.6,2.5987,2.5994,2.5753,2.5974,2.5973,2.5971,2.5971,2.597,2.5192,2.5258,2.5317,2.5399,2.5446,2.5502,2.5568,2.56,2.5675,2.5763,2.5769,2.5866,2.5927,2.6037,2.6078,2.6155,2.613,2.6163,2.6171,2.6178,2.6184,2.5976,2.617,2.617,2.6169,2.6169,2.6169,0,2.5376,2.5413,2.5488,2.5572,2.5637,2.562,2.5685,2.5741,2.5826,2.5884,2.5953,2.6056,2.614,2.6185,2.6269,2.6322,2.6319,2.6344,2.6339,2.6348,2.6201,2.6173,2.6345,2.6345,2.6345,2.6345,2.6344,2.6344,2.5479,2.5589,2.5605,2.5739,2.5775,2.587,2.5909,2.5961,2.6006,2.6122,2.6191,2.6219,2.6272,2.636,2.6437,2.6448,2.6479,2.6506,2.6514,2.6376,2.6358,2.6341,2.6314,2.6513,2.6513,2.6654,2.6655,2.6656]},{"header":{"parameterUnit":"m.s-1","parameterCategory":1,"la1":30.2991,"la2":30.254,"lo1":-89.0895,"lo2":-89.0444,"dy":0.0017,"dx":0.0017,"nx":28,"ny":28,"refTime":"2023-10-09T03:00:00:Z","depth":0,"parameterNumber":3,"parameterNumberName":"V-component_of_WINDS"},"data":[0,0,0,0,0,0,0,0,0,0,0,0,0,0,0,0,0,0,0,0,0,0,0,0,0,0,0,0,0,0,0,0,0,0,0,0,0,0,0,0,0,0,0,0,0,0,0,0,0,0,0,0,0,0,0,0,0,0,-0.132,-0.132,0,-0.1318,-0.1318,-0.1318,-0.1355,-0.1356,-0.1357,-0.1358,-0.135,-0.1348,-0.1347,0,0,0,0,0,0,0,0,0,0,0,0,0,-0.1352,-0.1351,-0.132,-0.132,-0.132,-0.1318,-0.1318,-0.1318,-0.1355,-0.1356,-0.1357,-0.1358,-0.135,-0.1349,-0.1347,0,0,0,0,0,0,0,0,0,0,0,0,0,-0.1343,-0.1351,-0.132,-0.1339,-0.134,-0.1318,-0.1318,-0.1318,-0.1354,-0.1356,-0.1358,-0.1359,-0.135,-0.1349,-0.1347,-0.1306,0,0,-0.1342,-0.1341,0,0,0,0,0,0,0,0,-0.1343,-0.1342,-0.1336,-0.1337,-0.1339,-0.1339,-0.1326,-0.1314,-0.1354,-0.1349,-0.1358,-0.136,-0.1344,-0.1343,-0.1339,-0.1305,-0.1305,-0.1341,-0.134,-0.134,-0.1339,0,0,0,0,0,0,0,-0.1344,-0.1342,-0.1319,-0.1336,-0.1338,-0.1345,-0.1346,-0.1324,-0.1338,-0.1349,-0.1352,-0.1352,-0.1345,-0.1341,-0.1339,-0.1305,-0.1341,-0.134,-0.1339,-0.1338,-0.1238,-0.1237,0,0,0,0,0,0,-0.1343,-0.1342,-0.1319,-0.1319,-0.1345,-0.1344,-0.1344,-0.1337,-0.1338,-0.134,-0.135,-0.1353,-0.1343,-0.1341,-0.1339,-0.1292,-0.134,-0.1338,-0.1337,-0.124,-0.1238,-0.1236,0,0,0,0,0,0,-0.1343,-0.134,-0.1319,-0.1332,-0.1329,-0.1341,-0.1333,-0.1336,-0.1332,-0.1339,-0.1341,-0.1343,-0.1344,-0.1341,-0.1314,-0.1292,-0.1337,-0.1336,-0.1242,-0.1239,-0.1237,-0.1196,0,0,0,0,0,0,-0.1344,-0.134,-0.1326,-0.1331,-0.1329,-0.1296,-0.1332,-0.1335,-0.1329,-0.1333,-0.1333,-0.1334,-0.1345,-0.1317,-0.1313,-0.129,-0.1334,-0.1244,-0.1241,-0.1238,-0.1199,-0.1192,-0.1187,0,0,0,0,0,-0.1345,-0.1312,-0.1325,-0.1322,-0.1311,-0.1295,-0.1293,-0.1308,-0.1327,-0.1312,-0.1317,-0.1334,-0.1295,-0.1314,-0.1309,-0.1286,-0.1245,-0.1242,-0.1238,-0.1202,-0.1194,-0.1187,0,0,0,0,0,0,-0.1301,-0.1313,-0.1327,-0.1296,-0.1294,-0.1301,-0.1282,-0.1298,-0.129,-0.1293,-0.131,-0.131,-0.128,-0.128,-0.1301,-0.1247,-0.1274,-0.1269,-0.1248,-0.124,-0.1234,-0.1234,-0.1333,0,0,0,0,0,-0.1289,-0.1276,-0.1287,-0.1258,-0.1257,-0.127,-0.1263,-0.1275,-0.1273,-0.1272,-0.1275,-0.1271,-0.1258,-0.1249,-0.1237,-0.12,-0.1201,-0.1182,-0.1176,-0.117,-0.1166,-0.1147,-0.1139,-0.1224,-0.1224,-0.1225,0,0,-0.1261,-0.1266,-0.1257,-0.1249,-0.125,-0.1235,-0.1268,-0.1251,-0.1241,-0.1269,-0.1244,-0.1246,-0.1243,-0.1211,-0.1197,-0.1211,-0.1143,-0.1166,-0.1161,-0.116,-0.1142,-0.1134,-0.1127,-0.1222,-0.1222,-0.1223,0,0,-0.1204,-0.1206,-0.1183,-0.1184,-0.1185,-0.1194,-0.1188,-0.1193,-0.1197,-0.1173,-0.1194,-0.1181,-0.1158,-0.1155,-0.1151,-0.1095,-0.1111,-0.1091,-0.1057,-0.1038,-0.1032,-0.1026,-0.1006,-0.0999,-0.1086,-0.1086,-0.1086,0,-0.1169,-0.115,-0.1169,-0.1151,-0.1147,-0.1175,-0.1151,-0.115,-0.1146,-0.1142,-0.1158,-0.1132,-0.1131,-0.11,-0.1086,-0.1082,-0.1076,-0.109,-0.1032,-0.1026,-0.1021,-0.1002,-0.0995,-0.1084,-0.1084,-0.1084,-0.1085,0,-0.1107,-0.1093,-0.1074,-0.1073,-0.1067,-0.1046,-0.1061,-0.1052,-0.1065,-0.1073,-0.1048,-0.1049,-0.1039,-0.1033,-0.1044,-0.1003,-0.1011,-0.1029,-0.1056,-0.101,-0.0993,-0.0986,-0.1081,-0.1081,-0.1082,-0.1083,0,0,-0.102,-0.1032,-0.1025,-0.1025,-0.1029,-0.1018,-0.0999,-0.0991,-0.0984,-0.098,-0.0964,-0.0946,-0.0963,-0.0958,-0.0969,-0.0953,-0.091,-0.0973,-0.0973,-0.0961,-0.0865,-0.0852,-0.0844,-0.0921,-0.0919,-0.0918,-0.0866,0,-0.0965,-0.0935,-0.0952,-0.0918,-0.0906,-0.0933,-0.0916,-0.0916,-0.0923,-0.0913,-0.0919,-0.0906,-0.093,-0.0927,-0.0912,-0.0918,-0.089,-0.0922,-0.0905,-0.0904,-0.0905,-0.0835,-0.082,-0.077,-0.0859,-0.0858,-0.0857,0,-0.0896,-0.0893,-0.0859,-0.0867,-0.0863,-0.0847,-0.0843,-0.0833,-0.0833,-0.0839,-0.0835,-0.0851,-0.0832,-0.0859,-0.0833,-0.0854,-0.0848,-0.085,-0.0848,-0.0847,-0.0877,-0.0831,-0.0755,-0.0747,-0.0847,-0.0848,-0.0848,0,-0.0838,-0.0824,-0.0803,-0.0802,-0.0811,-0.0799,-0.0802,-0.0805,-0.08,-0.0795,-0.0792,-0.0784,-0.078,-0.0773,-0.0786,-0.0805,-0.0758,-0.0786,-0.0762,-0.0761,-0.075,-0.075,-0.0671,-0.0746,-0.0746,-0.0746,-0.0747,0,-0.0774,-0.0752,-0.0777,-0.0763,-0.0739,-0.0759,-0.0735,-0.074,-0.0743,-0.073,-0.0752,-0.074,-0.0758,-0.0747,-0.0757,-0.0734,-0.0731,-0.0735,-0.0738,-0.0733,-0.0733,-0.0729,-0.0733,-0.0745,-0.0745,-0.0745,-0.0746,0,-0.0704,-0.0719,-0.0698,-0.0709,-0.0711,-0.0693,-0.0702,-0.0689,-0.0699,-0.0682,-0.068,-0.0693,-0.0682,-0.0695,-0.0683,-0.069,-0.0659,-0.0667,-0.0659,-0.0662,-0.0637,-0.0639,-0.0552,-0.0542,-0.0623,-0.0622,-0.0622,0,-0.0662,-0.0647,-0.0657,-0.0651,-0.0653,-0.0643,-0.0639,-0.0658,-0.0653,-0.0654,-0.0641,-0.0632,-0.0625,-0.0605,-0.0613,-0.0605,-0.0613,-0.0583,-0.0612,-0.0608,-0.0613,-0.0614,-0.0613,-0.0577,-0.0576,-0.0575,-0.0575,0,-0.0587,-0.0596,-0.059,-0.0587,-0.0582,-0.058,-0.0579,-0.0573,-0.0593,-0.0585,-0.0575,-0.0571,-0.0561,-0.0551,-0.0546,-0.0547,-0.0564,-0.0566,-0.056,-0.0555,-0.0552,-0.0554,-0.0644,-0.0568,-0.0568,-0.0569,-0.0569,-0.057,-0.053,-0.0518,-0.0524,-0.0517,-0.0519,-0.0518,-0.0508,-0.0517,-0.0509,-0.0504,-0.0515,-0.0502,-0.0505,-0.0499,-0.0499,-0.0489,-0.0501,-0.0492,-0.049,-0.0487,-0.0484,-0.0554,-0.0488,-0.0488,-0.0488,-0.0488,-0.0488,0,-0.0457,-0.0463,-0.0456,-0.0456,-0.045,-0.0469,-0.047,-0.0463,-0.0452,-0.0454,-0.0448,-0.0437,-0.0428,-0.0436,-0.0429,-0.0419,-0.0427,-0.0417,-0.0418,-0.0418,-0.0473,-0.0479,-0.0411,-0.0411,-0.0411,-0.0411,-0.0411,-0.0411,-0.0418,-0.0399,-0.0409,-0.0391,-0.0396,-0.0386,-0.0384,-0.0384,-0.0386,-0.0373,-0.0366,-0.0373,-0.0377,-0.0371,-0.0364,-0.0366,-0.0363,-0.035,-0.0355,-0.0406,-0.0414,-0.0421,-0.0427,-0.0349,-0.0349,-0.0301,-0.03,-0.03]}]]